This demonstration page uses our WeatherBlox Daily Observations layout. Learn more.

Left ArrowRight Arrow

Hourly Observations for February 14, 2015

Temp ( °F °C ) Dew Point ( °F °C ) Humidity (%) Winds ( mph kmh ) Pressure ( in mb ) Visibility ( mi km ) Precip ( " mm )
12:51 am 00:51 Clear 51 10.6 37 2.8 59 59 E 8 13 30.14 1021 10 16 N/A
1:51 am 01:51 Clear 54 12.2 37 2.8 53 53 SE 8 13 30.13 1020 10 16 N/A
2:51 am 02:51 Clear 53 11.7 37 2.8 55 55 E 12 19 30.12 1020 10 16 N/A
3:51 am 03:51 Clear 52 11.1 36 2.2 55 55 ESE 8 13 30.12 1020 10 16 N/A
4:51 am 04:51 Clear 52 11.1 35 1.7 53 53 SE 14 22 30.12 1020 10 16 N/A
5:51 am 05:51 Clear 51 10.6 35 1.7 54 54 SE 13 20 30.14 1021 10 16 N/A
6:51 am 06:51 Clear 49 9.4 34 1.1 56 56 SE 10 17 30.14 1021 10 16 N/A
7:51 am 07:51 Sunny 51 10.6 34 1.1 52 52 SE 12 19 30.17 1022 10 16 N/A
8:51 am 08:51 Sunny 56 13.3 33 0.6 42 42 ESE 17 28 30.18 1022 10 16 N/A
9:51 am 09:51 Sunny 59 15 36 2.2 42 42 SSE 12 19 30.17 1022 10 16 N/A
10:51 am 10:51 Sunny 64 17.8 34 1.1 33 33 ESE 9 15 30.15 1021 10 16 N/A
11:51 am 11:51 Sunny 67 19.4 34 1.1 30 30 SSE 7 11 30.11 1020 10 16 N/A
12:51 pm 12:51 Sunny 69 20.6 35 1.7 29 29 SSE 8 13 30.07 1018 10 16 N/A
1:51 pm 13:51 Sunny 69 20.6 36 2.2 30 30 SE 9 15 30.03 1017 10 16 N/A
2:51 pm 14:51 Sunny 70 21.1 37 2.8 30 30 S 6 9 30.01 1016 10 16 N/A
3:51 pm 15:51 Sunny 70 21.1 37 2.8 30 30 SSE 7 11 29.99 1016 10 16 N/A
4:51 pm 16:51 Sunny 69 20.6 37 2.8 31 31 SSW 7 11 29.98 1015 10 16 N/A
5:51 pm 17:51 Sunny 66 18.9 39 3.9 37 37 S 3 6 29.99 1016 10 16 N/A
6:51 pm 18:51 Clear 62 16.7 40 4.4 44 44 ESE 5 7 30.01 1016 10 16 N/A
7:51 pm 19:51 Clear 60 15.6 39 3.9 46 46 ENE 7 11 30.01 1016 10 16 N/A
8:51 pm 20:51 Clear 59 15 40 4.4 49 49 ENE 7 11 30.00 1016 10 16 N/A
9:51 pm 21:51 Clear 57 13.9 41 5 55 55 E 6 9 30.00 1016 10 16 N/A
10:51 pm 22:51 Clear 59 15 41 5 51 51 E 7 11 29.98 1015 10 16 N/A
11:51 pm 23:51 Clear 58 14.4 41 5 53 53 E 8 13 29.97 1015 10 16 N/A

Powered by AerisWeather